Location: ????????
(55.7667°N, 37.4833°E)
Time: 15:00:23
(UTC+00:00)

Cosmos 1703 - Pass Details

Date: 19 May 2025
Orbit: 444 x 453 km, 82.5° (Epoch: 20 June)

Event Time Altitude Azimuth Distance (km) Brightness Sun altitude
Exits shadow 23:47:17 - 180° (S) 1,741 5.4 -8.6°
Reaches altitude 10° 23:47:40 10° 179° (S) 1,582 5.2 -8.6°
Maximum altitude 23:51:05 62° 98° (E) 516 3.3 -8.3°
Drops below altitude 10° 23:54:32 10° 18° (NNE) 1,604 7.1 -8.0°
Sets 23:56:38 0° 15° (NNE) 2,485 8.2 -7.9°
